This is the latest recevied weather packets stored in our database for station/object K7VLL. If no packets are shown the sender has not sent any weather packets the latest 10 day(s).
| Time | Temp. | Humidity | Pressure | Rain* | Wind** | Luminosity | Snow |
|---|---|---|---|---|---|---|---|
| 1778232359 | 15.56° C | 38% | 1089.6 hPa | 0 mm | - | 0 W/m² | - |
| 1778230559 | 15° C | 41% | 1089.8 hPa | 0 mm | - | 0 W/m² | - |
| 1778228757 | 16.11° C | 39% | 1089.8 hPa | 0 mm | - | 0 W/m² | - |
| 1778226957 | 16.11° C | 36% | 1089.8 hPa | 0 mm | - | 0 W/m² | - |
| 1778225157 | 17.22° C | 35% | 1090.7 hPa | 0 mm | - | 0 W/m² | - |
| 1778223355 | 18.33° C | 30% | 1090.3 hPa | 0 mm | - | 0 W/m² | - |
| 1778221552 | 19.44° C | 29% | 1090.6 hPa | 0 mm | - | 0 W/m² | - |
| 1778219750 | 20.56° C | 24% | 1090.6 hPa | 0 mm | - | 0 W/m² | - |
| 1778217951 | 22.22° C | 21% | 1090.4 hPa | 0 mm | - | 0 W/m² | - |
| 1778216146 | 24.44° C | 18% | 1089.8 hPa | 0 mm | - | 0 W/m² | - |
| 1778214345 | 25° C | 18% | 1089.3 hPa | 0 mm | - | 0 W/m² | - |
| 1778212544 | 25° C | 17% | 1089.3 hPa | 0 mm | - | 0 W/m² | - |
| 1778210744 | 25.56° C | 16% | 1088.6 hPa | 0 mm | - | 0 W/m² | - |
| 1778208942 | 26.67° C | 15% | 1088 hPa | 0 mm | - | 0 W/m² | - |
| 1778207139 | 27.78° C | 11% | 1087.3 hPa | 0 mm | - | 0 W/m² | - |
| 1778205339 | 28.33° C | 10% | 1087 hPa | 0 mm | - | 9 W/m² | - |
| 1778203536 | 30° C | 10% | 1086.7 hPa | 0 mm | - | 38 W/m² | - |
| 1778201731 | 30° C | 10% | 1086.3 hPa | 0 mm | - | 34 W/m² | - |
| 1778199929 | 31.11° C | 9% | 1086.2 hPa | 0 mm | - | 129 W/m² | - |
| 1778198125 | 31.67° C | 9% | 1086.1 hPa | 0 mm | - | 231 W/m² | - |
| 1778196324 | 32.78° C | 10% | 1086.3 hPa | 0 mm | - | 315 W/m² | - |
| 1778194521 | 33.33° C | 10% | 1086.5 hPa | 0 mm | - | 403 W/m² | - |
| 1778192719 | 33.33° C | 9% | 1086.8 hPa | 0 mm | - | 483 W/m² | - |
| 1778190916 | 31.67° C | 11% | 1086.9 hPa | 0 mm | - | 554 W/m² | - |
| 1778189114 | 31.67° C | 12% | 1087.4 hPa | 0 mm | - | 611 W/m² | - |
* Rain latest hour (hover to see other rain measurements)
** Current wind speed in m/s (hover to see current wind gust speed)